星链-31659 (STARLINK-31659 )

导读

STARLINK-31659是美国太空探索技术公司(SpaceX)星链互联网卫星星座的一员,于2024年3月19日发射入轨,属于星链项目批量部署的卫星之一。星链项目旨在构建全球卫星互联网星座,为全球各地提供低延迟、高速率的宽带互联网服务,该卫星的发射进一步扩充了星链星座的在轨规模。

基本信息
目录编号:
59254
目录名称:
STARLINK-31659
国际标识:
2024-050A
轨道中心:
EARTH
卫星名称:
星链-31659
卫星全名:
星链-31659 (STARLINK-31659 )
卫星状态:
在轨 (已飞行821 天)
发射日期:
2024-03-19 UTC
国别 :
美国 (US)
星等 :
--
轨道信息
数据来源 国际轨道数据 AOE轨道数据
星历时间 2026-06-17T09:12:24+0800
1天前
查看轨道信息
2026-06-15T23:00:00+0800
2天前
查看轨道信息
半长轴 6840.855km 6840.872km
偏心率 0.0001588 0.0000957
轨道倾角 53.162° 53.160°
近地点辐角 70.268° 134.203°
升交点赤经 75.757° 82.419°
平近点角 289.849° 268.554°
近地点 461.631km 462.08km
远地点 463.805km 463.39km
周期 93.848分钟 93.848分钟
每日圈数 15.343952 15.343896
详细信息
固有亮度:
5
最大亮度:
0.3
卫星平台:
Starlink v2.0 mini
覆盖范围:
全球
运营商:
太空探索技术公司
运营商所在国:
美国
制造商(研发单位):
太空探索技术公司
制造商所在国:
美国
使用方式:
暂无
卫星简介
星链(Starlink)计划是由太空探索技术公司(SpaceX)提出的一个巨型低轨卫星互联网星座项目,计划在2019年至2024年间在太空搭建由约1.2万颗卫星组成的“星链”网络,其中1584颗将部署在地球上空550千米处的近地轨道,并从2020年开始工作。该卫星仍在工作。
2D轨道图
3D轨道图
轨道高度分析图
轨道倾角分析图
轨道综合分析图
查看轨道综合分析图